Site-Specific Forecast Table for Stillwater
DATE TIME TAIR TDEW RELH WDIR WSPD 1-hr PRECIP SRAD CLOUD
Thu Mar 30, 2017 12:00 am CDT 46°F 40°F 79% WSW 15 mph 0.00 in. 0 W/m2 42%
Thu Mar 30, 2017 1:00 am CDT 46°F 40°F 79% WSW 16 mph 0.00 in. 0 W/m2 56%
Thu Mar 30, 2017 2:00 am CDT 46°F 40°F 79% W 16 mph 0.00 in. 0 W/m2 67%
Thu Mar 30, 2017 3:00 am CDT 46°F 40°F 79% W 16 mph 0.00 in. 0 W/m2 78%
Thu Mar 30, 2017 4:00 am CDT 46°F 40°F 79% W 17 mph 0.00 in. 0 W/m2 88%
Thu Mar 30, 2017 5:00 am CDT 46°F 40°F 80% W 16 mph 0.00 in. 0 W/m2 92%
Thu Mar 30, 2017 6:00 am CDT 45°F 40°F 81% W 16 mph 0.00 in. 0 W/m2 95%
Thu Mar 30, 2017 7:00 am CDT 45°F 40°F 82% WNW 15 mph 0.00 in. 0 W/m2 99%
Thu Mar 30, 2017 8:00 am CDT 46°F 40°F 79% WNW 17 mph 0.00 in. 90 W/m2 91%
Thu Mar 30, 2017 9:00 am CDT 47°F 40°F 76% WNW 18 mph 0.00 in. 180 W/m2 83%
Thu Mar 30, 2017 10:00 am CDT 48°F 39°F 73% WNW 19 mph 0.00 in. 270 W/m2 75%
Thu Mar 30, 2017 11:00 am CDT 50°F 40°F 68% WNW 19 mph 0.00 in. 416 W/m2 68%
Thu Mar 30, 2017 12:00 pm CDT 53°F 41°F 63% WNW 19 mph 0.00 in. 563 W/m2 62%
Thu Mar 30, 2017 1:00 pm CDT 56°F 41°F 58% WNW 18 mph 0.00 in. 709 W/m2 55%
Thu Mar 30, 2017 2:00 pm CDT 57°F 42°F 57% WNW 17 mph 0.00 in. 663 W/m2 55%
Thu Mar 30, 2017 3:00 pm CDT 58°F 43°F 56% WNW 16 mph 0.00 in. 617 W/m2 55%
Thu Mar 30, 2017 4:00 pm CDT 60°F 44°F 55% NW 15 mph 0.00 in. 571 W/m2 55%
Thu Mar 30, 2017 5:00 pm CDT 59°F 44°F 57% NW 12 mph 0.00 in. 411 W/m2 47%
Thu Mar 30, 2017 6:00 pm CDT 58°F 44°F 59% NW 10 mph 0.00 in. 252 W/m2 38%
Thu Mar 30, 2017 7:00 pm CDT 57°F 44°F 62% NNW 8 mph 0.00 in. 93 W/m2 30%
DATE TIME TAIR TDEW RELH WDIR WSPD 1-hr PRECIP SRAD CLOUD
Thu Mar 30, 2017 8:00 pm CDT 53°F 44°F 70% N 6 mph 0.00 in. 0 W/m2 20%
Thu Mar 30, 2017 9:00 pm CDT 50°F 44°F 79% NNE 6 mph 0.00 in. 0 W/m2 10%
Thu Mar 30, 2017 10:00 pm CDT 46°F 43°F 87% NE 6 mph 0.00 in. 0 W/m2 0%
Thu Mar 30, 2017 11:00 pm CDT 45°F 42°F 90% NE 6 mph 0.00 in. 0 W/m2 0%
Fri Mar 31, 2017 12:00 am CDT 44°F 41°F 92% NE 6 mph 0.00 in. 0 W/m2 0%
Fri Mar 31, 2017 1:00 am CDT 42°F 41°F 94% ENE 6 mph 0.00 in. 0 W/m2 0%
Fri Mar 31, 2017 2:00 am CDT 41°F 40°F 95% ENE 5 mph 0.00 in. 0 W/m2 0%
Fri Mar 31, 2017 3:00 am CDT 40°F 39°F 95% ENE 5 mph 0.00 in. 0 W/m2 0%
Fri Mar 31, 2017 4:00 am CDT 40°F 38°F 96% E 5 mph 0.00 in. 0 W/m2 0%
Fri Mar 31, 2017 5:00 am CDT 39°F 38°F 96% ENE 6 mph 0.00 in. 0 W/m2 10%
Fri Mar 31, 2017 6:00 am CDT 39°F 39°F 97% ENE 6 mph 0.00 in. 0 W/m2 20%
Fri Mar 31, 2017 7:00 am CDT 39°F 39°F 98% ENE 7 mph 0.00 in. 0 W/m2 30%
Fri Mar 31, 2017 8:00 am CDT 43°F 40°F 89% ENE 10 mph 0.00 in. 172 W/m2 23%
Fri Mar 31, 2017 9:00 am CDT 47°F 41°F 80% E 13 mph 0.00 in. 343 W/m2 16%
Fri Mar 31, 2017 10:00 am CDT 51°F 42°F 71% E 16 mph 0.00 in. 515 W/m2 8%
Fri Mar 31, 2017 11:00 am CDT 54°F 43°F 66% E 16 mph 0.00 in. 642 W/m2 7%
Fri Mar 31, 2017 12:00 pm CDT 58°F 45°F 61% E 16 mph 0.00 in. 769 W/m2 5%
Fri Mar 31, 2017 1:00 pm CDT 62°F 46°F 56% ENE 17 mph 0.00 in. 897 W/m2 3%
Fri Mar 31, 2017 2:00 pm CDT 64°F 47°F 54% E 16 mph 0.00 in. 833 W/m2 4%
Fri Mar 31, 2017 3:00 pm CDT 66°F 48°F 53% E 16 mph 0.00 in. 768 W/m2 4%
DATE TIME TAIR TDEW RELH WDIR WSPD 1-hr PRECIP SRAD CLOUD
Fri Mar 31, 2017 4:00 pm CDT 68°F 49°F 51% E 16 mph 0.00 in. 704 W/m2 5%
Fri Mar 31, 2017 5:00 pm CDT 68°F 50°F 53% E 15 mph 0.00 in. 502 W/m2 12%
Fri Mar 31, 2017 6:00 pm CDT 67°F 51°F 56% E 14 mph 0.00 in. 300 W/m2 20%
Fri Mar 31, 2017 7:00 pm CDT 67°F 52°F 59% ENE 13 mph 0.00 in. 97 W/m2 27%
Fri Mar 31, 2017 8:00 pm CDT 64°F 52°F 65% ENE 14 mph 0.00 in. 0 W/m2 18%
Fri Mar 31, 2017 9:00 pm CDT 61°F 52°F 72% ENE 14 mph 0.00 in. 0 W/m2 9%
Fri Mar 31, 2017 10:00 pm CDT 58°F 52°F 79% ENE 14 mph 0.00 in. 0 W/m2 0%
Fri Mar 31, 2017 11:00 pm CDT 57°F 52°F 84% ENE 13 mph 0.00 in. 0 W/m2 0%
Sat Apr 01, 2017 12:00 am CDT 56°F 52°F 89% ENE 12 mph 0.00 in. 0 W/m2 0%
Sat Apr 01, 2017 1:00 am CDT 54°F 52°F 94% E 11 mph 0.00 in. 0 W/m2 0%
Sat Apr 01, 2017 2:00 am CDT 54°F 52°F 93% E 11 mph 0.00 in. 0 W/m2 0%
Sat Apr 01, 2017 3:00 am CDT 54°F 52°F 93% ESE 10 mph 0.00 in. 0 W/m2 0%
Sat Apr 01, 2017 4:00 am CDT 54°F 52°F 93% ESE 11 mph 0.00 in. 0 W/m2 0%
Sat Apr 01, 2017 5:00 am CDT 54°F 51°F 93% ESE 12 mph 0.00 in. 0 W/m2 2%
Sat Apr 01, 2017 6:00 am CDT 54°F 51°F 93% SE 14 mph 0.00 in. 0 W/m2 3%
Sat Apr 01, 2017 7:00 am CDT 53°F 51°F 93% SE 15 mph 0.00 in. 0 W/m2 5%
Sat Apr 01, 2017 8:00 am CDT 57°F 52°F 82% SE 17 mph 0.00 in. 160 W/m2 20%
Sat Apr 01, 2017 9:00 am CDT 61°F 51°F 71% SE 19 mph 0.00 in. 319 W/m2 35%
Sat Apr 01, 2017 10:00 am CDT 65°F 51°F 61% SE 20 mph 0.00 in. 479 W/m2 50%
Sat Apr 01, 2017 11:00 am CDT 68°F 50°F 53% SSE 21 mph 0.00 in. 586 W/m2 65%
DATE TIME TAIR TDEW RELH WDIR WSPD 1-hr PRECIP SRAD CLOUD
Sat Apr 01, 2017 12:00 pm CDT 71°F 49°F 45% SSE 22 mph 0.00 in. 693 W/m2 81%
Sat Apr 01, 2017 1:00 pm CDT 75°F 47°F 37% SSE 23 mph 0.00 in. 800 W/m2 96%
Sat Apr 01, 2017 2:00 pm CDT 73°F 50°F 44% SSE 21 mph 0.00 in. 563 W/m2 97%
Sat Apr 01, 2017 3:00 pm CDT 70°F 51°F 51% S 18 mph 0.00 in. 326 W/m2 99%
Sat Apr 01, 2017 4:00 pm CDT 68°F 53°F 58% S 16 mph 0.00 in. 89 W/m2 100%
Sat Apr 01, 2017 5:00 pm CDT 67°F 55°F 64% S 14 mph 0.00 in. 66 W/m2 100%
Sat Apr 01, 2017 6:00 pm CDT 66°F 56°F 71% S 11 mph 0.00 in. 43 W/m2 100%
Sat Apr 01, 2017 7:00 pm CDT 65°F 57°F 77% S 9 mph 0.00 in. 21 W/m2 100%
Sat Apr 01, 2017 8:00 pm CDT 64°F 58°F 80% SSW 8 mph 0.00 in. 0 W/m2 99%
Sat Apr 01, 2017 9:00 pm CDT 63°F 58°F 83% SSW 6 mph 0.00 in. 0 W/m2 99%
Sat Apr 01, 2017 10:00 pm CDT 63°F 58°F 86% SSW 5 mph 0.00 in. 0 W/m2 98%
Sat Apr 01, 2017 11:00 pm CDT 62°F 58°F 86% WSW 5 mph 0.00 in. 0 W/m2 93%
Sun Apr 02, 2017 12:00 am CDT 62°F 58°F 87% W 7 mph 0.00 in. 0 W/m2 87%
Sun Apr 02, 2017 1:00 am CDT 61°F 57°F 87% WNW 9 mph 0.00 in. 0 W/m2 82%
Sun Apr 02, 2017 2:00 am CDT 57°F 54°F 89% WNW 9 mph 0.00 in. 0 W/m2 58%
Sun Apr 02, 2017 3:00 am CDT 54°F 51°F 90% WNW 9 mph 0.00 in. 0 W/m2 35%
Sun Apr 02, 2017 4:00 am CDT 50°F 48°F 92% WNW 9 mph 0.00 in. 0 W/m2 11%
Sun Apr 02, 2017 5:00 am CDT 48°F 46°F 92% WNW 9 mph 0.00 in. 0 W/m2 7%
Sun Apr 02, 2017 6:00 am CDT 46°F 44°F 92% WNW 9 mph 0.00 in. 0 W/m2 4%
Sun Apr 02, 2017 7:00 am CDT 45°F 42°F 91% WNW 10 mph 0.00 in. 0 W/m2 1%
DATE TIME TAIR TDEW RELH WDIR WSPD 1-hr PRECIP SRAD CLOUD